Weather Roundup
Issued by NWS

Home | Current Version | Previous Version | Graphics & Text | Print | Product List | Glossary Off
Versions: 1 2 3 4 5 6 7 8 9 10 11 12 13 14 15 16 17 18 19 20 21 22 23 24 25 26 27 28 29 30 31 32 33 34 35 36 37 38 39 40 41 42 43 44 45 46 47 48 49 50

626
NZUS93 KARX 282310
HRRWXR

CURRENT HOURLY OBSERVATIONS ACROSS
MUCH OF THE UPPER MISSISSIPPI VALLEY
NATIONAL WEATHER SERVICE LA CROSSE WI
600 PM CDT SUN MAY 28 2017


...SOUTHEAST MINNESOTA...


CITY           SKY/WX    TMP DP  RH WIND       PRES   REMARKS
ROCHESTER      PTSUNNY   71  42  35 W23       29.75S
ROCHESTER/MAYO MOCLDY    70  41  34 W16G32    29.75R
WINONA         SUNNY     73  43  33 NW12G20   29.72F
AUSTIN         MOSUNNY   72  39  30 W15G28    29.76S
ALBERT LEA     PTSUNNY   75  39  27 NW8G18    29.76F
DODGE CENTER   MOSUNNY   70  39  32 W14G25    29.76S
PRESTON        MOSUNNY   70  40  33 W14G28    29.76F
OWATONNA       SUNNY     73  36  25 W24G32    29.75S
FARIBAULT      MOSUNNY   72  45  37 NW16G22   29.75S
$$

...ELSEWHERE IN MINNESOTA...


CITY           SKY/WX    TMP DP  RH WIND       PRES   REMARKS
MINNEAPOLIS    CLOUDY    70  43  37 NW14G22   29.73S
INTNL FALLS    RAIN      57  50  77 W7        29.62S
DULUTH         MOSUNNY   62  47  57 W18G26    29.65S
RED WING       PTSUNNY   72  37  28 NW13G24   29.71R
REDWOOD FALLS  MOSUNNY   71  38  29 NW13G18   29.76F
MANKATO        NOT AVBL
WORTHINGTON    SUNNY     72  38  29 NW20G30   29.83F
FAIRMONT       SUNNY     72  40  31 NW17G31   29.79S
$$

...SOUTHWEST WISCONSIN...


CITY           SKY/WX    TMP DP  RH WIND       PRES   REMARKS
LA CROSSE      SUNNY     75  45  34 W17       29.71F
PRAIRIE DU CHI MOSUNNY   75  37  25 W14G25    29.73F
BOSCOBEL       MOSUNNY   76  44  32 NW10G20   29.74S
LONE ROCK      MOSUNNY   74  43  32 W16G28    29.72S
PLATTEVILLE    MOSUNNY   74  47  38 NW13G23   29.75S
FORT MC COY    SUNNY     72  43  35 W15G25    29.72S
CAMP DOUGLAS   MOSUNNY   70  50  48 W14G20    29.70S
MAUSTON-NEW LI PTCLDY    71  47  42 W13G23    29.71S
VIROQUA        FAIR      71  43  36 SW10      29.75S
WIS DELLS      PTSUNNY   70  44  38 NW13G23   29.72R
$$

...ELSEWHERE IN WISCONSIN...


CITY           SKY/WX    TMP DP  RH WIND       PRES   REMARKS
MILWAUKEE      MOSUNNY   75  53  46 SW14      29.69F
MADISON        MOSUNNY   74  46  36 W12G20    29.70R
GREEN BAY      MOSUNNY   72  56  57 SW12      29.62S
EAU CLAIRE     SUNNY     69  46  43 W13       29.69F
BLACK RVR FLS  FAIR      73  41  31 W15G21    29.71R
MEDFORD        LGT RAIN  62  48  60 W21G33    29.70R
WAUSAU         SUNNY     68  44  42 W17G29    29.66S
WIS RAPIDS     MOSUNNY   71  46  40 NW10G22   29.70S
MARSHFIELD     MOSUNNY   66  45  46 W10       29.68S
RICE LAKE      RAIN      60  48  64 W22G29    29.74R
$$

...NORTHEAST IOWA...


CITY           SKY/WX    TMP DP  RH WIND       PRES   REMARKS
WATERLOO       MOSUNNY   76  41  28 NW12      29.76S
DUBUQUE        SUNNY     73  44  35 NW16G25   29.76F
DECORAH        MOSUNNY   72  41  33 NW14G24   29.75S
MASON CITY     PTSUNNY   74  40  29 W23       29.80S
CHARLES CITY   MOSUNNY   75  39  27 NW21G28   29.78S
OELWEIN        MOSUNNY   75  41  29 NW17G25   29.77S
$$

...ELSEWHERE IN IOWA...


CITY           SKY/WX    TMP DP  RH WIND       PRES   REMARKS
DES MOINES     MOSUNNY   80  40  23 W25G33    29.80F
IOWA CITY      MOSUNNY   77  50  38 W12       29.80F
FORT DODGE     MOSUNNY   73  41  31 NW14G21   29.83S
MARSHALLTOWN   PTSUNNY   77  44  30 W21       29.78S
CEDAR RAPIDS   SUNNY     75  50  41 W17G23    29.77F
$$

...NORTHERN ILLINOIS...


CITY           SKY/WX    TMP DP  RH WIND       PRES   REMARKS
CHICAGO-OHARE  MOSUNNY   75  52  44 W14       29.73S
CHICAGO-MIDWAY MOSUNNY   76  52  43 W12       29.73S
MOLINE         SUNNY     76  46  34 W17G24    29.78R
ROCKFORD       MOSUNNY   76  49  38 NW15      29.74S
PEORIA         MOSUNNY   79  52  38 W15G22    29.79S
$$

NOTE: "FAIR" INDICATES FEW OR NO CLOUDS BELOW 12,000 FEET WITH NO
SIGNIFICANT WEATHER AND/OR OBSTRUCTIONS TO VISIBILITY. WIND
SPEEDS ARE IN MILES-PER-HOUR.




USA.gov is the U.S. government's official web portal to all federal, state and local government web resources and services.